Weather History for Ohio State University, OH

Change the Weather History Date:

Saturday, August 10, 2013

  Actual Average Record
Temperature  
Mean Temperature 74 °F -  
Max Temperature 82 °F 80 °F 91 °F (2010)
Min Temperature 66 °F 61 °F 57 °F (1999)
Cooling Degree Days 9    
Growing Degree Days 24 (Base 50)    
Moisture  
Dew Point 64 °F    
Average Humidity 74    
Maximum Humidity 96    
Minimum Humidity 52    
Precipitation  
Precipitation 0.00 in - - ()
Sea Level Pressure  
Sea Level Pressure 30.07 in    
Wind  
Wind Speed 2 mph (SW)    
Max Wind Speed 7 mph    
Max Gust Speed -    
Visibility 10 miles    
Events      
Averages and records for this station are not official NWS values.
T = Trace of Precipitation, MM = Missing Value Source: NWS Daily Summary

Daily Weather History Graph

Daily Weather History Graph

Search for Another Location

Airport:

Trip Planner

Search our weather history database for the weather conditions in past years. The results will help you decide how hot, cold, wet, or windy it might be!

Date:

Astronomy

Aug. 10, 2013 Rise Set
Actual Time 6:39 AM EDT 8:35 PM EDT
Civil Twilight 6:09 AM EDT 9:04 PM EDT
Nautical Twilight 5:33 AM EDT 9:40 PM EDT
Astronomical Twilight 4:54 AM EDT 10:19 PM EDT
Moon 10:24 AM EDT (8/10) 10:16 PM EDT (8/10)
Length of Visible Light 14h 54m
Length of Day
13h 56m
Waxing Crescent, 14% of the Moon is Illuminated
Aug 10
Waxing Crescent
Aug 14
First Quarter
Aug 20
Full
Aug 28
Last Quarter
Sep 5
New

Hourly Weather History & Observations

Time (EDT) Temp. Heat Index Dew Point Humidity Pressure Visibility Wind Dir Wind Speed Gust Speed Precip Events Conditions
12:53 AM 68.0 °F - 64.9 °F 90% 30.05 in 10.0 mi Calm Calm - N/A   Clear
1:53 AM 70.0 °F - 64.9 °F 84% 30.05 in 10.0 mi Calm Calm - N/A   Clear
2:53 AM 68.0 °F - 64.9 °F 90% 30.04 in 10.0 mi Calm Calm - N/A   Clear
3:53 AM 68.0 °F - 64.9 °F 90% 30.05 in 10.0 mi Calm Calm - N/A   Clear
4:53 AM 66.0 °F - 64.0 °F 93% 30.06 in 10.0 mi Calm Calm - N/A   Clear
5:53 AM 66.0 °F - 64.0 °F 93% 30.06 in 9.0 mi Calm Calm - N/A   Clear
6:53 AM 66.0 °F - 64.9 °F 96% 30.08 in 8.0 mi Calm Calm - N/A   Clear
7:53 AM 68.0 °F - 64.9 °F 90% 30.08 in 10.0 mi Calm Calm - N/A   Clear
8:53 AM 71.1 °F - 64.9 °F 81% 30.09 in 10.0 mi NE 3.5 mph - N/A   Clear
9:53 AM 73.0 °F - 66.0 °F 79% 30.09 in 10.0 mi Calm Calm - N/A   Clear
10:53 AM 75.0 °F - 64.0 °F 69% 30.10 in 10.0 mi ENE 3.5 mph - N/A   Clear
11:53 AM 77.0 °F - 63.0 °F 62% 30.11 in 10.0 mi SSE 4.6 mph - N/A   Clear
12:53 PM 79.0 °F - 63.0 °F 58% 30.10 in 10.0 mi SW 3.5 mph - N/A   Clear
1:53 PM 81.0 °F 82.2 °F 63.0 °F 54% 30.09 in 10.0 mi SSW 6.9 mph - N/A   Scattered Clouds
2:53 PM 82.0 °F 83.1 °F 63.0 °F 52% 30.08 in 10.0 mi West 5.8 mph - N/A   Scattered Clouds
3:53 PM 82.0 °F 83.1 °F 63.0 °F 52% 30.08 in 10.0 mi Variable 6.9 mph - N/A   Partly Cloudy
4:53 PM 81.0 °F 82.5 °F 64.0 °F 56% 30.06 in 10.0 mi SSW 6.9 mph - N/A   Partly Cloudy
5:53 PM 80.1 °F 81.9 °F 64.9 °F 60% 30.05 in 10.0 mi West 5.8 mph - N/A   Clear
6:53 PM 80.1 °F 81.5 °F 63.0 °F 56% 30.05 in 10.0 mi West 5.8 mph - N/A   Clear
7:53 PM 79.0 °F - 64.0 °F 60% 30.05 in 10.0 mi WSW 3.5 mph - N/A   Clear
8:53 PM 73.0 °F - 64.0 °F 73% 30.06 in 9.0 mi Calm Calm - N/A   Clear
9:53 PM 75.0 °F - 64.9 °F 71% 30.08 in 10.0 mi SSW 4.6 mph - N/A   Clear
10:53 PM 73.0 °F - 64.9 °F 76% 30.08 in 10.0 mi SSW 4.6 mph - N/A   Clear
11:53 PM 71.1 °F - 64.9 °F 81% 30.08 in 10.0 mi Calm Calm - N/A   Clear